User: anonymous   Login
Location: Unspecified
(0.0000°N, 0.0000°E)
Time: 21:51:52
(UTC+00:00)
Language:

MAST - Orbit

View from above orbital plane
View from above orbital plane
View from above satellite
View from above satellite

Ground track
Ground track

The orbit data is extracted from the following two-line orbital elements,

1 31126U 07012K   17082.83159810 +.00000157 +00000-0 +43321-4 0  9996
2 31126 098.0526 036.2044 0091712 083.6194 277.5439 14.56498445527400
Epoch (UTC): 23 March 2017 19:57:30
Eccentricity: 0.0091712
inclination: 98.0526°
perigee height: 639 km
apogee height: 769 km
right ascension of ascending node: 36.2044°
argument of perigee: 83.6194°
revolutions per day: 14.56498445
mean anomaly at epoch: 277.5439°
orbit number at epoch: 52740

The dashed part of the orbit path shows where the satellite is in the earth's shadow,  

DLR